Wind_Speed
10 11 11 11 11 12 11 11 12 11 14 14 13 15 13 10 6 8 11 13 14 13 12 13 12 13 11 11 11 11 11 12 12 13 15 16 16 17 18 18 19 20 20 20
12 14 13 12 11 10 11 12 13 13 13 12 11 12 10 9 5 4 9 11 10 10 10 11 10 10 10 11 10 10 11 12 13 14 15 16 17 17 18 18 18 19 20 20
10 11 14 12 10 12 11 12 12 12 12 11 11 10 11 10 4 2 4 5 4 6 8 8 7 7 8 8 9 10 11 12 12 13 15 16 17 17 18 18 18 19 19 19
9 10 13 12 11 13 13 12 10 9 10 11 11 11 10 11 8 4 2 2 2 2 4 5 6 7 7 8 9 9 10 11 12 14 16 17 17 18 19 19 19 19 19 20
9 12 14 13 13 14 12 9 8 8 9 10 11 12 10 11 10 6 4 2 0 1 2 3 4 5 6 6 7 8 10 11 13 15 16 17 19 19 20 20 21 21 21 21
9 11 13 12 12 12 10 9 10 11 11 8 9 11 12 12 12 8 6 3 1 1 2 2 3 4 6 7 8 9 11 13 14 16 17 18 20 21 21 22 22 23 23 23
15 16 16 12 10 11 11 11 15 16 15 10 9 8 11 13 11 9 6 4 3 3 4 4 5 6 8 9 10 10 12 14 15 17 18 19 20 21 22 23 24 24 24 24
16 19 17 12 11 13 11 10 11 14 15 12 6 7 12 12 10 9 7 6 5 5 6 7 8 8 9 10 11 12 14 15 16 17 19 20 21 22 23 23 24 24 25 25
14 16 16 13 13 14 11 9 8 10 10 10 7 9 10 10 10 10 9 8 8 9 9 10 10 10 10 12 13 14 14 16 17 18 19 21 22 23 24 24 25 25 25 26
15 15 12 13 13 12 10 9 9 8 9 8 10 8 9 12 15 14 13 12 11 11 11 11 12 12 13 13 14 14 15 16 18 19 20 21 22 23 24 24 25 26 26 27
14 15 12 13 13 12 10 9 9 9 9 9 14 13 11 15 18 18 16 14 14 13 13 13 13 14 14 14 15 15 16 18 19 20 21 22 23 24 24 25 26 27 27 29
17 15 14 15 16 14 11 11 11 11 10 9 11 12 13 15 19 20 19 18 16 16 16 16 16 16 16 16 16 16 17 18 20 21 22 23 23 24 25 26 27 28 29 30
17 16 14 14 18 18 12 10 8 9 10 10 12 15 15 15 16 20 20 19 18 17 17 18 17 17 17 17 17 17 18 19 20 21 22 24 25 26 27 28 29 30 31 32
16 16 15 16 17 15 8 5 7 9 11 13 14 16 15 16 17 20 20 19 19 19 18 18 18 18 18 18 18 19 19 20 21 22 24 25 26 27 28 29 30 31 32 33
17 15 16 16 15 14 12 11 11 12 14 15 16 17 18 19 21 23 23 22 21 20 20 19 19 19 19 19 19 20 21 22 23 24 25 26 27 28 29 31 32 33 34 35
18 17 17 16 13 13 13 14 14 15 15 14 15 17 20 21 22 23 22 23 23 22 21 20 20 20 20 20 20 21 22 23 24 26 27 28 29 30 31 33 34 35 36 38
21 20 18 16 14 14 14 14 15 16 16 16 17 18 20 22 22 21 20 21 22 21 21 21 21 20 21 21 22 22 23 25 26 28 29 30 31 32 33 35 35 36 38 39
21 21 19 16 15 14 11 13 15 15 15 16 16 18 22 22 21 21 21 20 20 20 21 22 22 22 22 23 24 24 25 26 27 29 30 31 33 34 36 37 38 39 40 42
22 21 19 17 15 14 15 20 19 18 16 15 16 18 19 20 20 21 21 21 21 22 22 23 23 23 23 24 25 26 26 27 29 30 32 33 35 36 38 39 40 41 43 44
22 20 19 17 17 16 21 24 21 18 19 18 17 19 21 20 19 23 24 25 25 24 24 24 25 25 25 26 26 27 28 29 31 33 34 35 37 38 40 41 42 43 44 45
24 21 19 17 16 18 24 24 23 21 19 17 19 22 23 23 22 25 26 27 27 26 26 27 27 27 27 28 28 28 30 31 33 35 36 37 40 41 42 43 44 45 46 46
21 20 21 21 20 23 26 26 26 23 21 20 23 25 28 28 27 28 29 28 28 28 28 28 29 30 29 30 30 31 32 34 35 37 38 40 42 44 44 44 45 47 47 47
22 22 22 26 27 27 28 29 26 23 24 27 29 29 29 29 30 30 30 30 29 29 30 30 31 32 32 32 33 34 35 37 38 40 41 43 44 46 46 46 47 47 48 47
22 23 24 27 29 30 29 29 28 28 29 29 30 31 31 31 31 31 32 32 31 32 33 33 34 34 35 35 36 37 38 40 41 43 44 45 46 48 48 49 49 49 50 49
28 27 27 29 30 32 32 31 31 31 31 31 32 32 32 32 32 32 33 34 34 34 35 36 36 37 37 38 39 40 41 42 44 45 46 47 49 50 50 49 50 50 49 49
29 30 30 32 32 34 34 33 32 33 33 33 33 33 33 33 34 34 35 35 36 37 37 38 39 39 41 42 43 43 44 46 47 48 49 51 52 52 51 51 51 51 50 48
Wind_Direction
20 3 4 341 317 308 318 317 308 307 313 315 310 298 304 310 294 278 279 274 264 260 264 267 268 268 268 274 280 286 293 299 303 305 307 309 310 311 312 312 311 310 309 308
0 334 330 320 317 317 319 317 318 316 321 321 312 305 309 317 305 280 281 282 258 254 257 257 262 259 265 272 281 289 295 302 306 310 314 316 317 318 317 316 316 315 313 311
319 307 304 314 316 311 311 311 319 322 322 317 321 325 338 342 312 297 286 287 262 249 249 254 258 262 270 280 289 294 299 305 312 319 322 323 323 324 324 322 321 319 317 316
296 297 306 315 309 308 306 311 314 317 314 315 327 329 350 1 6 19 355 305 264 244 231 243 256 264 277 288 295 299 307 313 319 323 326 328 328 328 328 327 325 322 320 318
286 292 302 307 306 305 308 311 311 296 289 295 320 331 350 354 4 24 20 14 267 227 227 254 266 278 290 300 305 311 316 320 324 327 328 330 331 331 330 328 326 323 321 318
292 280 285 289 306 313 314 307 307 300 298 302 350 345 349 356 1 10 5 351 311 278 283 294 303 313 314 315 316 321 324 328 330 331 332 332 332 331 330 329 327 325 322 318
304 296 288 286 304 306 309 310 312 327 341 9 11 343 337 341 347 351 347 339 329 310 310 316 319 321 318 318 321 326 327 329 330 331 332 332 331 330 329 328 326 324 322 319
293 297 301 312 311 307 306 303 312 330 339 336 341 321 330 336 339 337 335 331 325 319 318 322 326 325 324 325 327 329 331 331 330 330 330 330 329 329 328 326 324 322 321 319
286 295 304 305 301 301 294 285 291 303 310 308 299 305 320 336 335 328 321 320 322 323 325 327 326 325 327 328 329 330 330 329 329 328 327 327 328 327 326 324 323 323 322 321
281 283 289 290 298 302 295 281 275 273 301 314 302 281 286 323 329 325 318 316 317 318 319 321 323 326 327 326 326 327 328 327 327 326 325 326 325 324 323 323 323 322 322 321
279 278 281 273 272 269 283 292 280 265 260 285 311 318 315 318 323 322 319 315 316 318 319 320 322 322 320 320 321 323 324 324 324 323 323 323 323 323 323 323 323 323 322 320
281 277 267 266 266 259 257 262 269 274 270 276 291 297 295 307 314 316 319 316 315 316 316 317 318 316 315 315 317 318 319 320 320 319 319 320 320 321 322 323 323 322 320 320
280 277 271 265 262 262 247 234 249 261 269 274 274 281 287 299 301 305 310 309 307 307 307 308 310 310 310 310 312 314 315 316 316 316 317 318 319 320 322 323 322 322 321 321
279 275 274 275 290 310 303 275 259 265 267 269 270 272 280 286 291 297 300 300 300 299 299 301 304 304 304 306 308 310 312 314 315 315 316 318 319 320 322 322 322 322 322 323
277 275 273 274 281 292 303 298 285 276 272 273 279 281 276 274 280 288 293 296 297 296 297 299 300 300 301 303 305 307 310 313 313 314 315 316 318 320 321 322 322 322 322 323
282 283 280 273 266 271 271 270 271 272 272 271 272 273 272 271 277 284 291 294 295 295 296 298 299 300 301 302 303 306 308 311 312 313 314 315 317 319 321 321 321 321 321 322
283 285 287 281 268 257 256 262 260 259 262 259 258 262 270 276 281 286 288 289 292 294 296 299 300 301 301 302 303 304 306 309 311 312 312 313 315 317 319 320 321 322 322 322
279 278 282 283 274 259 256 260 263 261 261 268 269 270 275 280 286 288 289 291 294 297 299 300 301 301 301 301 303 305 306 308 311 311 312 313 314 316 317 318 320 322 322 323
272 275 279 277 272 267 258 251 242 242 248 258 262 265 271 280 288 291 294 297 298 299 299 299 299 300 300 300 301 303 305 307 308 310 311 312 313 314 315 317 318 320 321 322
270 273 278 276 269 264 267 267 256 251 251 254 264 270 272 276 284 290 295 297 298 299 299 299 299 298 298 299 300 301 303 306 307 309 311 312 313 313 314 316 317 318 320 322
264 270 277 274 268 264 264 265 266 259 250 258 271 274 278 282 285 290 292 294 296 297 297 297 296 296 297 298 299 301 303 304 305 308 310 311 312 314 314 315 317 318 319 320
270 271 274 275 267 258 261 264 265 263 261 267 276 279 281 283 286 286 288 290 291 292 293 293 294 294 296 297 299 300 302 303 304 306 308 310 312 313 314 315 316 317 318 319
258 258 263 267 269 266 268 268 266 271 272 279 281 282 283 283 283 285 287 288 289 290 292 292 292 293 294 295 297 299 301 303 304 306 307 310 312 313 314 314 315 316 317 318
261 257 259 263 271 272 274 276 280 282 279 280 281 281 281 282 283 284 285 287 288 289 291 291 291 292 293 294 296 298 299 302 304 305 307 308 310 312 312 313 314 314 316 316
256 259 261 263 266 270 273 277 279 280 279 278 278 279 280 281 282 284 285 287 287 288 289 289 291 292 293 294 295 297 299 301 302 304 306 308 309 311 311 312 313 313 315 316
256 257 260 264 270 273 276 277 279 280 279 279 279 280 281 282 283 284 285 286 287 288 289 289 290 292 293 294 295 297 298 300 302 303 304 306 307 309 309 310 311 312 313 313
Height
5885 5885 5884 5885 5884 5882 5880 5877 5875 5873 5871 5868 5865 5861 5858 5856 5854 5856 5858 5859 5861 5862 5864 5865 5866 5866 5867 5867 5867 5867 5867 5866 5866 5865 5864 5862 5860 5859 5857 5855 5853 5851 5849 5847
5886 5886 5885 5884 5882 5881 5879 5876 5874 5872 5870 5868 5865 5859 5856 5855 5852 5854 5857 5856 5857 5859 5861 5863 5864 5864 5865 5865 5866 5865 5865 5864 5864 5862 5861 5859 5857 5855 5853 5851 5849 5847 5845 5843
5888 5888 5885 5884 5882 5880 5878 5876 5874 5872 5869 5867 5864 5862 5858 5856 5854 5854 5855 5855 5856 5858 5859 5861 5861 5862 5863 5863 5863 5863 5863 5862 5861 5860 5858 5856 5854 5852 5850 5848 5846 5844 5841 5839
5887 5886 5884 5882 5881 5879 5877 5875 5873 5870 5868 5865 5863 5860 5859 5858 5856 5854 5855 5855 5857 5857 5858 5859 5860 5861 5861 5862 5861 5861 5861 5860 5859 5857 5855 5853 5851 5849 5847 5844 5842 5840 5838 5836
5885 5884 5882 5881 5880 5878 5875 5873 5871 5868 5865 5863 5861 5859 5859 5858 5857 5855 5856 5856 5857 5857 5858 5859 5859 5859 5860 5860 5859 5859 5858 5857 5856 5854 5852 5850 5848 5846 5843 5841 5839 5837 5835 5832
5881 5880 5879 5878 5877 5876 5874 5872 5869 5865 5862 5860 5861 5860 5859 5858 5858 5856 5857 5857 5857 5857 5858 5858 5858 5858 5858 5858 5857 5857 5856 5854 5853 5851 5849 5847 5845 5842 5840 5838 5835 5833 5831 5828
5879 5876 5873 5873 5874 5874 5873 5872 5868 5863 5860 5860 5862 5862 5861 5860 5860 5859 5858 5857 5857 5857 5857 5857 5857 5856 5856 5856 5855 5854 5853 5852 5850 5848 5846 5844 5842 5839 5837 5834 5832 5829 5827 5824
5878 5874 5871 5870 5872 5872 5871 5871 5870 5867 5865 5863 5861 5861 5860 5860 5860 5859 5858 5858 5857 5857 5856 5856 5855 5855 5854 5853 5852 5851 5850 5849 5847 5845 5843 5841 5839 5836 5834 5831 5828 5826 5822 5819
5876 5874 5871 5869 5871 5870 5869 5869 5868 5868 5866 5864 5861 5860 5859 5859 5859 5859 5858 5857 5856 5855 5855 5854 5853 5853 5852 5851 5850 5848 5847 5846 5844 5842 5840 5838 5835 5833 5830 5827 5824 5821 5818 5815
5873 5872 5872 5871 5868 5868 5867 5866 5867 5866 5864 5863 5860 5858 5858 5857 5857 5857 5856 5855 5854 5854 5853 5852 5851 5850 5849 5848 5847 5846 5844 5843 5841 5840 5837 5835 5833 5830 5827 5824 5820 5817 5813 5810
5870 5869 5869 5868 5864 5864 5864 5865 5864 5864 5864 5863 5859 5858 5854 5856 5856 5855 5854 5853 5852 5851 5850 5849 5848 5847 5847 5846 5844 5843 5842 5840 5838 5836 5834 5832 5829 5826 5823 5820 5816 5812 5809 5804
5866 5866 5865 5863 5861 5859 5861 5862 5862 5862 5862 5862 5861 5861 5855 5855 5854 5853 5853 5851 5850 5849 5847 5846 5846 5845 5844 5843 5842 5840 5839 5837 5835 5833 5831 5828 5825 5822 5819 5815 5811 5807 5803 5799
5862 5862 5861 5860 5859 5855 5855 5857 5858 5860 5860 5860 5859 5859 5854 5854 5853 5851 5851 5849 5848 5847 5846 5845 5843 5842 5841 5840 5838 5837 5835 5833 5832 5829 5827 5824 5821 5817 5814 5810 5806 5801 5797 5792
5858 5857 5857 5856 5853 5851 5851 5853 5855 5856 5857 5857 5856 5854 5851 5850 5850 5849 5848 5847 5846 5845 5844 5842 5841 5839 5838 5836 5835 5833 5831 5829 5827 5825 5822 5819 5816 5812 5808 5804 5800 5795 5790 5785
5853 5853 5853 5852 5852 5850 5850 5852 5853 5854 5853 5853 5852 5850 5849 5847 5847 5846 5845 5844 5843 5841 5840 5838 5837 5836 5834 5833 5831 5829 5827 5825 5822 5820 5817 5814 5810 5807 5802 5798 5793 5788 5783 5778
5847 5848 5848 5848 5849 5849 5849 5851 5851 5851 5850 5850 5849 5847 5845 5843 5843 5843 5842 5840 5838 5837 5836 5834 5833 5831 5830 5828 5826 5824 5822 5820 5817 5815 5811 5808 5804 5800 5796 5791 5787 5781 5776 5770
5844 5843 5843 5843 5844 5844 5845 5846 5846 5845 5845 5844 5844 5843 5840 5840 5839 5838 5837 5836 5834 5833 5831 5830 5828 5827 5825 5823 5821 5819 5817 5815 5812 5809 5805 5802 5798 5794 5789 5784 5779 5774 5768 5762
5839 5839 5839 5838 5839 5839 5842 5841 5840 5839 5838 5838 5838 5837 5836 5835 5834 5833 5832 5831 5829 5828 5826 5825 5823 5822 5820 5818 5816 5814 5811 5809 5806 5802 5799 5795 5791 5786 5782 5777 5771 5766 5760 5754
5833 5834 5834 5834 5833 5834 5835 5833 5832 5833 5833 5832 5831 5831 5831 5830 5829 5827 5825 5825 5824 5823 5821 5820 5818 5816 5814 5812 5810 5807 5805 5802 5799 5795 5792 5788 5784 5779 5774 5769 5763 5758 5752 5745
5828 5827 5828 5828 5829 5829 5828 5825 5824 5826 5825 5824 5825 5826 5825 5824 5824 5822 5820 5819 5818 5817 5815 5813 5812 5810 5808 5806 5803 5801 5798 5795 5791 5788 5784 5780 5775 5771 5765 5760 5754 5749 5743 5736
5818 5819 5821 5822 5822 5824 5821 5819 5818 5820 5818 5818 5819 5820 5818 5818 5817 5816 5814 5813 5812 5811 5809 5807 5805 5803 5801 5798 5796 5793 5790 5787 5783 5779 5775 5771 5767 5762 5757 5751 5745 5740 5733 5727
5813 5814 5815 5815 5816 5817 5814 5813 5812 5811 5811 5812 5813 5813 5812 5811 5810 5809 5808 5807 5805 5803 5802 5800 5798 5796 5793 5791 5788 5785 5782 5778 5775 5771 5767 5762 5757 5752 5747 5741 5736 5730 5723 5717
5810 5810 5809 5809 5810 5809 5807 5806 5804 5804 5806 5807 5807 5807 5805 5804 5804 5802 5801 5799 5798 5795 5794 5792 5790 5787 5785 5782 5780 5777 5773 5769 5766 5762 5757 5752 5747 5742 5737 5731 5725 5720 5713 5707
5802 5803 5803 5803 5802 5800 5800 5799 5799 5799 5799 5800 5799 5799 5798 5797 5796 5794 5793 5791 5790 5788 5786 5783 5781 5778 5776 5773 5770 5767 5764 5760 5756 5752 5747 5742 5737 5732 5727 5721 5715 5709 5703 5697
5797 5798 5798 5796 5795 5794 5794 5793 5793 5793 5793 5793 5792 5791 5790 5789 5787 5786 5784 5783 5781 5779 5777 5774 5771 5769 5766 5763 5760 5757 5754 5750 5746 5741 5736 5731 5726 5721 5716 5710 5704 5699 5693 5686
5790 5790 5791 5790 5789 5788 5786 5786 5786 5785 5784 5784 5783 5782 5781 5780 5778 5777 5775 5773 5771 5769 5767 5764 5761 5759 5755 5752 5749 5746 5742 5739 5734 5730 5725 5720 5715 5710 5704 5699 5694 5688 5682 5676